User: anonymous
Location: NJAA Observatory
(40.6819°N, 74.8979°W)
Time: 09:10:21
(UTC-04:00)
Language:

Meteor 1-28 Rocket - Orbit

View from above orbital plane
View from above orbital plane
View from above satellite
View from above satellite

Ground track
Ground track

The orbit data is extracted from the following two-line orbital elements,

1 10114U 77057B   14206.08351103  .00000519  00000-0  32366-4 0  3013
2 10114 097.2659 064.6271 0016256 055.3243 304.9518 15.13472118 23294
Epoch (UTC): 25 July 2014 02:00:15
Eccentricity: 0.0016256
inclination: 97.2659°
perigee height: 514 km
apogee height: 537 km
right ascension of ascending node: 64.6271°
argument of perigee: 55.3243°
revolutions per day: 15.13472118
mean anomaly at epoch: 304.9518°
orbit number at epoch: 2329

The dashed part of the orbit path shows where the satellite is in the earth's shadow,  

DLR